CW3816 Reston VA US current weather conditions

sailwx.info

Wind from 263 at 2 knots

Air temperature 5.6° C
Dewpoint -4.3° C

Last reported at 2019-Dec-05 15:01 UTC.
Time now 2019-Dec-05 15:32 UTC

Location: N 38°56' W 077°19'.
View on Google Maps.

See reports from other nearby stations

  
Tides and Currents Weather Stations Pressure Air Temp Water Temp Dewpoint Dewpoint Depression Visibility Wind Speed Wind Dir Waves Ship Positions
date/time (UTC)wind fromknots sea level pressurealtimeterstation pressurevisibilityair tempwater tempwave heightnotes
2019-Dec-05 15:01 263 2 5.6
2019-Dec-05 14:46 254 2 5.0
2019-Dec-05 14:31 302 1 5.0
2019-Dec-05 14:16 349 1 5.0
2019-Dec-05 14:01 284 1 4.4
2019-Dec-05 13:46 234 1 4.4
2019-Dec-05 13:31 280 1 3.9
2019-Dec-05 13:16 247 1 3.9
2019-Dec-05 13:01 316 0 3.3
2019-Dec-05 12:46 268 1 3.3
2019-Dec-05 12:31 248 1 2.8
2019-Dec-05 12:16 155 0 2.8
2019-Dec-05 12:01 253 0 2.8
2019-Dec-05 11:46 213 0 2.8
2019-Dec-05 11:31 260 0 2.8
2019-Dec-05 11:16 234 0 2.8
2019-Dec-05 11:01 240 0 3.3
2019-Dec-05 10:46 256 0 2.8
2019-Dec-05 10:31 199 0 2.8
2019-Dec-05 10:16 212 2.8
2019-Dec-05 10:01 265 3.3
2019-Dec-05 09:46 241 0 3.3
2019-Dec-05 09:31 246 1 3.3
2019-Dec-05 09:16 360 0 3.3
2019-Dec-05 09:01 350 0 3.3
2019-Dec-05 08:46 241 0 3.3
2019-Dec-05 08:31 272 1 3.3
2019-Dec-05 08:16 256 0 3.3
2019-Dec-05 08:01 227 0 3.3
2019-Dec-05 07:46 248 0 3.3
2019-Dec-05 07:31 256 0 3.3
2019-Dec-05 07:16 239 0 3.3
2019-Dec-05 07:01 234 0 3.3
2019-Dec-05 06:46 244 0 3.9
2019-Dec-05 06:16 244 3.9
2019-Dec-05 06:01 277 3.9
2019-Dec-05 05:47 241 3.9
2019-Dec-05 05:31 222 3.9
2019-Dec-05 05:16 227 4.4
2019-Dec-05 05:01 199 0 5.0
2019-Dec-05 04:46 250 0 5.0
2019-Dec-05 04:31 250 0 5.6
2019-Dec-05 04:16 268 0 5.6
2019-Dec-05 04:01 261 0 5.6
2019-Dec-05 03:46 268 0 4.4
2019-Dec-05 03:32 182 3.3
2019-Dec-05 03:16 277 3.3
2019-Dec-05 03:02 306 3.3
2019-Dec-05 02:47 195 2.8
2019-Dec-05 02:32 306 2.2
2019-Dec-05 02:17 185 2.2
2019-Dec-05 02:01 202 2.2
2019-Dec-05 01:46 202 2.8
2019-Dec-05 01:31 202 3.3
2019-Dec-05 01:16 212 4.4
2019-Dec-05 01:01 246 5.0
2019-Dec-05 00:46 256 5.6
2019-Dec-05 00:31 199 5.6
2019-Dec-05 00:16 288 6.1
2019-Dec-05 00:02 323 0 6.1
2019-Dec-04 23:46 254 0 6.7
2019-Dec-04 23:32 240 0 6.7
2019-Dec-04 23:17 295 0 7.2
2019-Dec-04 23:02 175 0 7.2
2019-Dec-04 22:46 254 1 7.2
2019-Dec-04 22:31 323 0 7.2
2019-Dec-04 22:16 264 0 6.7
2019-Dec-04 22:01 360 6.7
2019-Dec-04 21:46 250 7.2
2019-Dec-04 21:31 250 7.2
2019-Dec-04 21:16 258 7.8
2019-Dec-04 21:01 258 7.8
2019-Dec-04 20:46 258 8.3
2019-Dec-04 20:31 263 0 8.3
2019-Dec-04 20:16 239 0 8.9
2019-Dec-04 20:02 263 0 8.9
2019-Dec-04 19:46 265 0 8.9
2019-Dec-04 19:31 224 0 9.4
2019-Dec-04 19:16 090 0 8.9
2019-Dec-04 19:01 248 0 8.3
2019-Dec-04 18:46 233 0 8.3
2019-Dec-04 18:31 208 0 7.8
2019-Dec-04 18:16 257 0 7.8
2019-Dec-04 18:01 191 0 7.8
2019-Dec-04 17:46 208 0 7.8
2019-Dec-04 17:31 301 0 7.2
2019-Dec-04 17:16 052 0 6.1
2019-Dec-04 17:01 175 5.6
2019-Dec-04 16:46 247 5.0
2019-Dec-04 16:31 179 5.0
2019-Dec-04 16:16 179 4.4
2019-Dec-04 16:01 196 4.4
2019-Dec-04 15:46 182 3.9
2019-Dec-04 15:32 244 3.3
2019-Dec-04 15:16 155 2.8
2019-Dec-04 15:02 216 2.2
2019-Dec-04 14:46 219 2.2
2019-Dec-04 14:31 216 1.7
2019-Dec-04 14:16 216 1.7
2019-Dec-04 14:01 216 1.1
2019-Dec-04 13:46 227 1.1
2019-Dec-04 13:31 227 0.6
2019-Dec-04 13:16 233 0.6
2019-Dec-04 13:01 233 -0.0
2019-Dec-04 12:46 233 -0.0
2019-Dec-04 12:31 233 -0.0
2019-Dec-04 12:16 233 -0.0
2019-Dec-04 12:01 233 -0.0
2019-Dec-04 11:46 233 -0.0
2019-Dec-04 11:31 234 -0.0
2019-Dec-04 11:16 233 0.6
2019-Dec-04 11:01 233 0.6
2019-Dec-04 10:46 234 1.1
2019-Dec-04 10:31 233 1.1
2019-Dec-04 10:16 233 1.7
2019-Dec-04 10:01 234 1.7
2019-Dec-04 09:46 247 1.7
2019-Dec-04 09:31 247 1.7
2019-Dec-04 09:16 247 1.7
2019-Dec-04 09:01 247 1.7
2019-Dec-04 08:46 247 1.7
2019-Dec-04 08:31 247 1.7
2019-Dec-04 08:16 247 1.7
2019-Dec-04 08:01 247 1.7
2019-Dec-04 07:46 247 1.7
2019-Dec-04 07:31 247 1.7
2019-Dec-04 07:16 250 2.2
2019-Dec-04 07:01 288 2.2
2019-Dec-04 06:46 049 2.8
2019-Dec-04 06:31 280 2.8
2019-Dec-04 06:16 270 1.7
2019-Dec-04 06:01 352 1.1
2019-Dec-04 05:46 013 1.1
2019-Dec-04 05:31 013 1.1
2019-Dec-04 05:16 013 1.1
2019-Dec-04 05:01 013 1.7
2019-Dec-04 04:46 013 2.2
2019-Dec-04 04:31 013 2.2
2019-Dec-04 04:16 037 2.8
2019-Dec-04 04:02 037 2.8
2019-Dec-04 03:46 280 2.8
2019-Dec-04 03:32 357 2.8
2019-Dec-04 03:17 268 2.8
2019-Dec-04 03:02 360 2.8
2019-Dec-04 02:47 272 2.8
2019-Dec-04 02:31 313 2.8
2019-Dec-04 02:17 145 2.8
2019-Dec-04 02:01 145 3.3
2019-Dec-04 01:46 193 3.3
2019-Dec-04 01:31 233 2.8
2019-Dec-04 01:16 299 2.8
2019-Dec-04 01:01 202 3.3
2019-Dec-04 00:46 315 3.3
2019-Dec-04 00:31 072 3.3
2019-Dec-04 00:16 055 3.9
2019-Dec-04 00:01 271 0 3.9
2019-Dec-03 23:46 251 3.9
2019-Dec-03 23:32 233 3.9
2019-Dec-03 23:17 239 3.9
2019-Dec-03 23:02 237 0 4.4
2019-Dec-03 22:46 174 0 4.4
2019-Dec-03 22:31 017 4.4
2019-Dec-03 22:17 318 5.0
2019-Dec-03 22:01 275 5.0
2019-Dec-03 21:46 247 0 5.6
2019-Dec-03 21:31 360 0 5.6
2019-Dec-03 21:16 275 0 6.1
2019-Dec-03 21:01 233 1 6.1
2019-Dec-03 20:46 337 1 6.1
2019-Dec-03 20:31 253 1 6.7
2019-Dec-03 20:16 277 1 7.2
2019-Dec-03 20:02 254 1 7.2
2019-Dec-03 19:46 014 2 7.2
2019-Dec-03 19:31 258 1 7.8
2019-Dec-03 19:17 263 2 7.2
2019-Dec-03 19:01 199 1 7.8
2019-Dec-03 18:46 261 2 7.8
2019-Dec-03 18:31 044 2 7.8
2019-Dec-03 18:16 216 1 7.8
2019-Dec-03 18:01 237 2 7.8
2019-Dec-03 17:46 247 1 7.8
2019-Dec-03 17:32 311 2 7.2
2019-Dec-03 17:16 306 1 7.2
2019-Dec-03 17:01 280 1 6.7
2019-Dec-03 16:46 223 2 6.7
2019-Dec-03 16:31 232 2 6.1
2019-Dec-03 16:16 254 2 5.6
2019-Dec-03 16:01 240 2 5.6
2019-Dec-03 15:46 051 2 5.6
2019-Dec-03 15:31 319 1 5.6
2019-Dec-03 15:16 270 1 5.6
2019-Dec-03 15:01 265 0 5.0